[[{"header":{"parameterUnit":"m.s-1","parameterCategory":1,"la1":30.2992,"la2":30.254,"lo1":-89.0895,"lo2":-89.0443,"dy":0.0025,"dx":0.0025,"nx":19,"ny":19,"refTime":"2026-05-11T09:00:00:Z","depth":0,"parameterNumber":2,"parameterNumberName":"U-component_of_WINDS"},"data":[0,0,0,-2.7752,-2.7753,-2.7774,-2.7774,-2.7844,-2.7845,0,0,0,0,0,0,0,0,0,0,0,-2.7769,-2.777,-2.7752,-2.7753,-2.7774,-2.7774,-2.7844,-2.7845,0,0,0,0,0,0,0,0,0,0,0,-2.7768,-2.777,-2.7771,-2.7753,-2.7774,-2.7774,-2.7843,-2.7813,0,0,0,0,0,0,0,0,0,0,-2.7785,-2.7823,-2.7769,-2.7771,-2.7753,-2.7774,-2.7774,-2.781,-2.7815,-2.7851,0,-2.7889,0,-2.7868,-2.7852,-2.7852,0,0,0,-2.7736,-2.782,-2.7804,-2.7772,-2.7754,-2.7775,-2.776,-2.7812,-2.7817,-2.7857,-2.7889,-2.7891,-2.7869,-2.7853,-2.7853,-2.8118,-2.812,0,0,-2.7735,-2.7786,-2.7801,-2.7808,-2.7806,-2.7759,-2.7761,-2.7814,-2.7854,-2.7889,-2.7892,-2.787,-2.7853,-2.7854,-2.8116,-2.8118,0,0,0,-2.7743,-2.7786,-2.7768,-2.7807,-2.7807,-2.776,-2.7762,-2.7852,-2.7841,-2.7892,-2.7871,-2.7854,-2.7855,-2.8113,-2.8116,-2.8268,0,0,0,-2.7741,-2.7791,-2.7768,-2.78,-2.7807,-2.7829,-2.7799,-2.7837,-2.7842,-2.7871,-2.7854,-2.7856,-2.8111,-2.8115,-2.8259,-2.8332,0,0,0,-2.776,-2.7792,-2.7803,-2.7803,-2.7814,-2.7827,-2.7819,-2.7837,-2.783,-2.7852,-2.7857,-2.8109,-2.8114,-2.825,-2.8318,-2.8417,0,0,0,-2.7795,-2.7939,-2.7807,-2.7959,-2.7814,-2.7919,-2.7818,-2.7895,-2.7932,-2.7855,-2.8111,-2.8116,-2.8248,-2.831,-2.8409,-2.8512,-2.8558,0,0,-2.8006,-2.7966,-2.8051,-2.7934,-2.8076,-2.7912,-2.8076,-2.8062,-2.8018,-2.8087,-2.8093,-2.8262,-2.8317,-2.8415,-2.8799,-2.8837,0,0,0,-2.8136,-2.8198,-2.8224,-2.8261,-2.8252,-2.8251,-2.8205,-2.82,-2.8256,-2.8063,-2.8321,-2.8353,-2.8408,-2.8455,-2.8487,-2.8532,-2.8139,-2.8139,-2.8138,-2.8512,-2.8444,-2.8581,-2.8517,-2.8554,-2.8504,-2.8528,-2.8513,-2.8436,-2.8498,-2.852,-2.876,-2.8817,-2.884,-2.8888,-2.8566,-2.8566,-2.8567,-2.8567,-2.8816,-2.8894,-2.8785,-2.888,-2.8809,-2.8888,-2.8845,-2.8788,-2.8853,-2.8739,-2.8784,-2.8668,-2.8884,-2.8922,-2.8578,-2.8576,-2.8575,-2.8574,-2.8573,-2.9056,-2.9082,-2.9071,-2.9115,-2.9158,-2.9087,-2.9153,-2.9086,-2.9023,-2.9068,-2.9084,-2.9081,-2.9072,-2.9079,-2.908,-2.9081,-2.9082,-2.9082,-2.9083,-2.9312,-2.9294,-2.9357,-2.9357,-2.9371,-2.9381,-2.9331,-2.9343,-2.934,-2.9286,-2.9286,-2.9205,-2.8916,-2.8846,-2.9096,-2.9093,-2.9092,-2.9091,-2.909,-2.9651,-2.9562,-2.966,-2.9674,-2.9668,-2.9715,-2.9626,-2.9657,-2.9657,-2.9693,-2.96,-2.9396,-2.9352,-2.9326,-2.9268,-2.9612,-2.9612,-2.9612,-2.9612,-2.9856,-2.9825,-2.9909,-2.9935,-2.9953,-2.9882,-2.9996,-2.9958,-2.9906,-2.9903,-2.9842,-2.9758,-2.9735,-2.9705,-2.967,-2.9615,-3.004,-3.0041,-3.0041,-3.0061,-3.0028,-3.0138,-3.0083,-3.0072,-3.0066,-3.0172,-3.0208,-3.013,-3.0057,-2.9899,-2.9881,-2.9744,-2.9703,-2.9631,-2.9579,-2.9476,0,0]},{"header":{"parameterUnit":"m.s-1","parameterCategory":1,"la1":30.2992,"la2":30.254,"lo1":-89.0895,"lo2":-89.0443,"dy":0.0025,"dx":0.0025,"nx":19,"ny":19,"refTime":"2026-05-11T09:00:00:Z","depth":0,"parameterNumber":3,"parameterNumberName":"V-component_of_WINDS"},"data":[0,0,0,-4.562,-4.5622,-4.5696,-4.5696,-4.5809,-4.581,0,0,0,0,0,0,0,0,0,0,0,-4.5612,-4.5613,-4.562,-4.5622,-4.5696,-4.5696,-4.5809,-4.581,0,0,0,0,0,0,0,0,0,0,0,-4.5611,-4.5613,-4.5614,-4.5623,-4.5696,-4.5696,-4.5809,-4.5746,0,0,0,0,0,0,0,0,0,0,-4.5671,-4.5677,-4.5612,-4.5614,-4.5623,-4.5696,-4.5696,-4.5743,-4.575,-4.5785,0,-4.582,0,-4.5817,-4.5819,-4.582,0,0,0,-4.5612,-4.5671,-4.5679,-4.5614,-4.5624,-4.5696,-4.566,-4.5746,-4.5755,-4.5794,-4.5822,-4.5825,-4.5819,-4.582,-4.5821,-4.6056,-4.6058,0,0,-4.5608,-4.5632,-4.5673,-4.5685,-4.5676,-4.5657,-4.5662,-4.5751,-4.5782,-4.5822,-4.5828,-4.5821,-4.5821,-4.5822,-4.6055,-4.6057,0,0,0,-4.5603,-4.563,-4.5635,-4.5681,-4.5692,-4.566,-4.5665,-4.5778,-4.5778,-4.5829,-4.5822,-4.5822,-4.5824,-4.6053,-4.6056,-4.6157,0,0,0,-4.56,-4.5627,-4.5633,-4.5649,-4.5691,-4.5737,-4.5691,-4.5772,-4.5781,-4.5822,-4.5822,-4.5825,-4.6051,-4.6054,-4.615,-4.62,0,0,0,-4.5602,-4.5627,-4.5642,-4.565,-4.5682,-4.5734,-4.5739,-4.5773,-4.5778,-4.582,-4.5825,-4.605,-4.6054,-4.6144,-4.6191,-4.6269,0,0,0,-4.5611,-4.5731,-4.5644,-4.5775,-4.5682,-4.5797,-4.5738,-4.5822,-4.5871,-4.5823,-4.6052,-4.6055,-4.6142,-4.6185,-4.6263,-4.6339,-4.6373,0,0,-4.5775,-4.5752,-4.5827,-4.5751,-4.5887,-4.5783,-4.5934,-4.5956,-4.5937,-4.6017,-4.6023,-4.6152,-4.619,-4.6268,-4.6556,-4.6583,0,0,0,-4.5887,-4.5941,-4.5972,-4.6019,-4.6039,-4.6059,-4.6055,-4.6062,-4.6129,-4.5984,-4.6201,-4.6223,-4.6267,-4.6302,-4.6326,-4.6362,-4.6073,-4.6072,-4.6072,-4.6154,-4.6124,-4.6246,-4.6225,-4.6271,-4.6265,-4.6299,-4.6308,-4.6265,-4.6316,-4.634,-4.6519,-4.6561,-4.6578,-4.6616,-4.6378,-4.6378,-4.6379,-4.6379,-4.6392,-4.6464,-4.6402,-4.6498,-4.6465,-4.6545,-4.6543,-4.6509,-4.6578,-4.6499,-4.6536,-4.6452,-4.6609,-4.6641,-4.6386,-4.6385,-4.6384,-4.6383,-4.6383,-4.6564,-4.6593,-4.66,-4.6664,-4.6716,-4.6689,-4.6758,-4.6726,-4.6695,-4.6733,-4.6754,-4.6752,-4.6746,-4.6745,-4.6746,-4.6746,-4.6747,-4.6747,-4.6747,-4.6739,-4.6744,-4.6806,-4.6836,-4.6861,-4.6889,-4.6883,-4.6906,-4.6924,-4.6894,-4.6894,-4.6845,-4.663,-4.6577,-4.6757,-4.6755,-4.6754,-4.6753,-4.6753,-4.6992,-4.6929,-4.7026,-4.7051,-4.7081,-4.7135,-4.7092,-4.7142,-4.7156,-4.7191,-4.7133,-4.6979,-4.6953,-4.6934,-4.6889,-4.714,-4.714,-4.714,-4.714,-4.7137,-4.712,-4.721,-4.7252,-4.7289,-4.726,-4.7368,-4.7363,-4.7349,-4.7355,-4.7314,-4.7252,-4.7234,-4.7218,-4.7193,-4.7151,-4.7462,-4.7463,-4.7463,-4.729,-4.7275,-4.7374,-4.7359,-4.738,-4.7398,-4.7499,-4.7548,-4.7518,-4.7475,-4.736,-4.7346,-4.7245,-4.7214,-4.717,-4.7132,-4.7054,0,0]}]]